This is the latest recevied weather packets stored in our database for station/object G4KVI. If no packets are shown the sender has not sent any weather packets the latest 1 day(s).
| Time | Temp. | Humidity | Pressure | Rain* | Wind** | Luminosity | Snow |
|---|---|---|---|---|---|---|---|
| 1778022603 | 10.56° C | 71% | 1015.5 hPa | 0 mm | 0.89 m/s, 327° | 0 W/m² | - |
| 1778022303 | 10.56° C | 70% | 1015.8 hPa | 0 mm | 0.89 m/s, 318° | 0 W/m² | - |
| 1778022003 | 10.56° C | 70% | 1015.6 hPa | 0 mm | 0.89 m/s, 328° | 0 W/m² | - |
| 1778021703 | 10.56° C | 70% | 1015.9 hPa | 0 mm | 0.89 m/s, 331° | 0 W/m² | - |
| 1778021403 | 10.56° C | 70% | 1015.6 hPa | 0 mm | 0.89 m/s, 328° | 0 W/m² | - |
| 1778021103 | 10.56° C | 70% | 1015.6 hPa | 0 mm | 0.89 m/s, 331° | 0 W/m² | - |
| 1778020803 | 11.11° C | 69% | 1015.5 hPa | 0 mm | 0.89 m/s, 328° | 0 W/m² | - |
| 1778020503 | 11.11° C | 69% | 1015.6 hPa | 0 mm | 0.45 m/s, 334° | 0 W/m² | - |
| 1778020203 | 11.11° C | 69% | 1015.7 hPa | 0 mm | 0.45 m/s, 332° | 0 W/m² | - |
| 1778019903 | 11.11° C | 69% | 1015.5 hPa | 0 mm | 0.45 m/s, 318° | 0 W/m² | - |
| 1778019603 | 11.11° C | 69% | 1015.7 hPa | 0 mm | 0.89 m/s, 319° | 0 W/m² | - |
| 1778019303 | 11.11° C | 69% | 1015.7 hPa | 0 mm | 0.89 m/s, 319° | 0 W/m² | - |
| 1778019003 | 11.11° C | 68% | 1015.7 hPa | 0 mm | 0.45 m/s, 326° | 0 W/m² | - |
| 1778018703 | 11.11° C | 68% | 1015.7 hPa | 0 mm | 0.45 m/s, 329° | 0 W/m² | - |
| 1778018403 | 11.11° C | 68% | 1015.7 hPa | 0 mm | 0.45 m/s, 334° | 0 W/m² | - |
| 1778018103 | 11.11° C | 68% | 1015.7 hPa | 0 mm | 0.89 m/s, 340° | 0 W/m² | - |
| 1778017803 | 11.11° C | 68% | 1015.7 hPa | 0 mm | 0.89 m/s, 335° | 0 W/m² | - |
| 1778017503 | 11.11° C | 68% | 1015.7 hPa | 0 mm | 0.89 m/s, 327° | 0 W/m² | - |
| 1778017203 | 11.11° C | 68% | 1015.4 hPa | 0 mm | 0.89 m/s, 318° | 0 W/m² | - |
| 1778016903 | 11.11° C | 68% | 1015.8 hPa | 0 mm | 0.45 m/s, 323° | 0 W/m² | - |
| 1778015403 | 11.11° C | 67% | 1015.7 hPa | 0 mm | 0.45 m/s, 316° | 0 W/m² | - |
| 1778015166 | 11.11° C | 67% | 1015.8 hPa | 0 mm | 0.45 m/s, 315° | 0 W/m² | - |
| 1778014803 | 11.67° C | 67% | 1015.5 hPa | 0 mm | 0.89 m/s, 327° | 0 W/m² | - |
| 1778014503 | 11.67° C | 67% | 1015.7 hPa | 0 mm | 0.89 m/s, 344° | 0 W/m² | - |
| 1778014203 | 11.67° C | 67% | 1015.7 hPa | 0 mm | 0.89 m/s, 6° | 0 W/m² | - |
* Rain latest hour (hover to see other rain measurements)
** Current wind speed in m/s (hover to see current wind gust speed)